EW8865 Weather Reports


time (UTC)temp
C
wind
direction
speed
KPH
gust
KPH
rain 1hr
cm
rain 24hr
cm
rain mn
cm
humidity
%
barometer
mb
20260510151503 14 73 11.3 19.3 0.00 0.00 0.00 62 1015.7
20260510151004 13 61 9.7 20.9 0.00 0.00 0.00 63 1015.7
20260510150503 13 57 9.7 20.9 0.00 0.00 0.00 61 1015.8
20260510145504 14 50 11.3 20.9 0.00 0.00 0.00 60 1015.9
20260510145004 14 74 8.0 19.3 0.00 0.00 0.00 61 1016.0
20260510144504 13 46 9.7 24.1 0.00 0.00 0.00 61 1016.1
20260510144003 14 50 14.5 25.7 0.00 0.00 0.00 60 1016.1
20260510143504 14 69 9.7 22.5 0.00 0.00 0.00 62 1016.2
20260510143005 13 83 11.3 22.5 0.00 0.00 0.00 61 1016.2
20260510142503 13 85 8.0 19.3 0.00 0.00 0.00 62 1016.4
20260510142004 13 37 11.3 24.1 0.00 0.00 0.00 63 1016.4
20260510141504 13 82 14.5 20.9 0.00 0.00 0.00 62 1016.4
20260510141004 13 95 9.7 20.9 0.00 0.00 0.00 62 1016.5
20260510140004 13 66 4.8 19.3 0.00 0.00 0.00 65 1016.5
20260510135503 13 74 8.0 19.3 0.00 0.00 0.00 65 1016.5
20260510135004 13 69 9.7 22.5 0.00 0.00 0.00 63 1016.5
20260510134004 13 84 11.3 20.9 0.00 0.00 0.00 64 1016.6
20260510133503 13 62 11.3 27.4 0.00 0.00 0.00 62 1016.6
20260510133004 13 85 8.0 27.4 0.00 0.00 0.00 65 1016.7
20260510132503 13 88 12.9 25.7 0.00 0.00 0.00 63 1016.7
20260510132004 13 86 9.7 24.1 0.00 0.00 0.00 66 1016.6
20260510131503 13 60 11.3 20.9 0.00 0.00 0.00 67 1016.7
20260510131003 13 52 12.9 25.7 0.00 0.00 0.00 66 1016.7
20260510130503 12 42 11.3 24.1 0.00 0.00 0.00 67 1016.8
20260510130004 12 45 9.7 22.5 0.00 0.00 0.00 67 1016.9
20260510125504 13 44 8.0 14.5 0.00 0.00 0.00 67 1016.9
20260510125003 12 67 9.7 20.9 0.00 0.00 0.00 68 1016.9
20260510124503 12 87 14.5 25.7 0.00 0.00 0.00 68 1016.9
20260510123504 12 50 14.5 27.4 0.00 0.00 0.00 70 1017.0
20260510123004 12 31 14.5 27.4 0.00 0.00 0.00 70 1017.0
20260510122503 12 44 14.5 29.0 0.00 0.00 0.00 70 1017.2
20260510122005 12 45 11.3 25.7 0.00 0.00 0.00 70 1017.2
20260510121504 12 40 14.5 24.1 0.00 0.00 0.00 70 1017.2
20260510121004 12 30 16.1 29.0 0.00 0.00 0.00 70 1017.3
20260510120504 12 36 9.7 24.1 0.00 0.00 0.00 71 1017.3
20260510120005 12 28 16.1 25.7 0.00 0.00 0.00 71 1017.3
20260510115504 11 54 8.0 22.5 0.00 0.00 0.00 72 1017.4
20260510114504 11 52 9.7 24.1 0.00 0.00 0.00 73 1017.6
20260510113504 11 52 9.7 19.3 0.00 0.00 0.00 73 1017.6
20260510113004 11 75 9.7 20.9 0.00 0.00 0.00 73 1017.7
20260510112503 11 66 11.3 24.1 0.00 0.00 0.00 73 1017.7
20260510112004 11 68 11.3 27.4 0.00 0.00 0.00 74 1017.8
20260510111003 11 76 9.7 19.3 0.00 0.00 0.00 73 1017.8
20260510110004 11 73 9.7 32.2 0.00 0.00 0.00 74 1017.8
20260510105004 11 52 14.5 33.8 0.00 0.00 0.00 74 1017.9
20260510104503 11 64 11.3 24.1 0.00 0.00 0.00 74 1017.9
20260510104004 11 55 11.3 24.1 0.00 0.00 0.00 74 1017.9
20260510103504 11 67 11.3 22.5 0.00 0.00 0.00 75 1018.0
20260510103004 11 62 14.5 25.7 0.00 0.00 0.00 74 1018.0
20260510102004 11 56 9.7 19.3 0.00 0.00 0.00 76 1018.0
20260510101004 10 57 9.7 24.1 0.00 0.00 0.00 77 1018.0
20260510100503 10 97 9.7 25.7 0.00 0.00 0.00 77 1018.1
20260510100004 10 65 11.3 22.5 0.00 0.00 0.00 77 1018.1
20260510095504 10 61 9.7 24.1 0.00 0.00 0.00 77 1018.1
20260510094504 10 59 8.0 20.9 0.00 0.00 0.00 77 1018.1
20260510094003 10 27 9.7 24.1 0.00 0.00 0.00 77 1018.1
20260510093504 10 42 9.7 29.0 0.00 0.00 0.00 77 1018.1
20260510093003 10 55 8.0 20.9 0.00 0.00 0.00 78 1018.1
20260510092503 10 70 6.4 19.3 0.00 0.00 0.00 78 1018.1
20260510092004 10 65 6.4 16.1 0.00 0.00 0.00 78 1018.1
20260510091504 10 64 8.0 19.3 0.00 0.00 0.00 79 1018.1
20260510090503 10 50 11.3 24.1 0.00 0.00 0.00 79 1018.2
20260510090003 10 41 9.7 22.5 0.00 0.00 0.00 79 1018.2
20260510084504 10 79 8.0 19.3 0.00 0.00 0.00 79 1018.2
20260510084004 9 67 11.3 32.2 0.00 0.00 0.00 79 1018.2
20260510083504 9 69 16.1 29.0 0.00 0.00 0.00 79 1018.2
20260510083005 9 72 11.3 25.7 0.00 0.00 0.00 79 1018.3
20260510082503 9 52 12.9 25.7 0.00 0.00 0.00 80 1018.2
20260510081503 9 70 14.5 20.9 0.00 0.00 0.00 80 1018.3
20260510081003 9 61 8.0 19.3 0.00 0.00 0.00 80 1018.3
20260510080504 9 33 11.3 29.0 0.00 0.00 0.00 80 1018.3
20260510080003 9 61 14.5 29.0 0.00 0.00 0.00 80 1018.3
20260510075003 10 43 9.7 25.7 0.00 0.00 0.00 80 1018.1
20260510074003 10 74 8.0 24.1 0.00 0.00 0.00 80 1018.0
20260510073004 10 58 14.5 27.4 0.00 0.00 0.00 80 1017.9
20260510072503 10 65 14.5 27.4 0.00 0.00 0.00 80 1017.8
20260510072004 10 52 9.7 19.3 0.00 0.00 0.00 80 1017.9
20260510071503 10 63 11.3 24.1 0.00 0.00 0.00 80 1017.9
20260510071004 10 66 11.3 22.5 0.00 0.00 0.00 80 1017.8
20260510070503 10 66 16.1 25.7 0.00 0.00 0.00 80 1017.7
20260510065503 10 54 14.5 22.5 0.00 0.00 0.00 80 1017.7
20260510065004 10 69 8.0 24.1 0.00 0.00 0.00 80 1017.7
20260510064503 10 61 14.5 27.4 0.00 0.00 0.00 80 1017.6
20260510064004 10 60 14.5 29.0 0.00 0.00 0.00 79 1017.6
20260510063503 10 65 11.3 22.5 0.00 0.00 0.00 79 1017.6
20260510063003 10 70 12.9 24.1 0.00 0.00 0.00 79 1017.6
20260510062504 10 41 11.3 32.2 0.00 0.00 0.00 79 1017.6
20260510062003 10 48 8.0 19.3 0.00 0.00 0.00 80 1017.6
20260510061504 10 61 9.7 24.1 0.00 0.00 0.00 80 1017.6
20260510061004 10 70 11.3 19.3 0.00 0.00 0.00 80 1017.5
20260510060504 9 61 8.0 19.3 0.00 0.00 0.00 80 1017.6
20260510060004 9 62 9.7 20.9 0.00 0.00 0.00 80 1017.6
20260510055503 9 52 4.8 16.1 0.00 0.00 0.00 80 1017.5
20260510055004 9 33 12.9 20.9 0.00 0.00 0.00 80 1017.5
20260510054004 9 60 8.0 20.9 0.00 0.00 0.00 80 1017.5
20260510053503 9 51 4.8 19.3 0.00 0.00 0.00 80 1017.4
20260510053003 9 53 9.7 20.9 0.00 0.00 0.00 80 1017.4
20260510052505 9 57 8.0 19.3 0.00 0.00 0.00 80 1017.4
20260510052003 9 66 9.7 19.3 0.00 0.00 0.00 80 1017.5
20260510051504 9 60 9.7 19.3 0.00 0.00 0.00 80 1017.5
20260510051003 9 58 9.7 20.9 0.00 0.00 0.00 79 1017.4
20260510050503 9 55 9.7 22.5 0.00 0.00 0.00 79 1017.5
20260510050004 9 56 11.3 24.1 0.00 0.00 0.00 79 1017.5
20260510045003 9 66 8.0 19.3 0.00 0.00 0.00 79 1017.4
20260510044503 9 43 11.3 22.5 0.00 0.00 0.00 79 1017.3
20260510044004 9 52 11.3 22.5 0.00 0.00 0.00 79 1017.4
20260510043503 9 53 9.7 27.4 0.00 0.00 0.00 79 1017.4
20260510043003 9 51 11.3 32.2 0.00 0.00 0.00 79 1017.4
20260510042003 10 62 12.9 27.4 0.00 0.00 0.00 79 1017.5
20260510041504 10 39 14.5 27.4 0.00 0.00 0.00 79 1017.5
20260510040504 10 57 9.7 24.1 0.00 0.00 0.00 79 1017.6
20260510040004 10 59 11.3 19.3 0.00 0.00 0.00 79 1017.5
20260510035004 10 56 16.1 29.0 0.00 0.00 0.00 79 1017.7
20260510034504 10 60 14.5 24.1 0.00 0.00 0.00 79 1017.7
20260510034003 10 52 9.7 24.1 0.00 0.00 0.00 79 1017.7
20260510033503 10 47 12.9 24.1 0.00 0.00 0.00 79 1017.7
20260510033004 10 47 11.3 20.9 0.00 0.00 0.00 79 1017.7
20260510032503 10 57 11.3 19.3 0.00 0.00 0.00 79 1017.8
20260510032004 10 57 14.5 22.5 0.00 0.00 0.00 79 1017.9
20260510031004 10 51 8.0 22.5 0.00 0.00 0.00 79 1017.9
20260510030504 10 63 9.7 19.3 0.00 0.00 0.00 79 1017.8
20260510025503 10 46 9.7 19.3 0.00 0.00 0.00 79 1017.9
20260510025004 10 46 9.7 19.3 0.00 0.00 0.00 79 1017.9
20260510024503 10 59 9.7 19.3 0.00 0.00 0.00 79 1018.0
20260510024003 10 41 11.3 20.9 0.00 0.00 0.00 79 1017.9
20260510023504 10 56 11.3 24.1 0.00 0.00 0.00 78 1018.0
20260510023005 10 44 11.3 22.5 0.00 0.00 0.00 78 1017.9
20260510022504 10 41 9.7 20.9 0.00 0.00 0.00 78 1017.9
20260510022003 10 45 9.7 19.3 0.00 0.00 0.00 78 1017.9
20260510021503 10 49 9.7 22.5 0.00 0.00 0.00 78 1017.9
20260510021005 10 58 12.9 25.7 0.00 0.00 0.00 77 1017.9
20260510015004 10 38 14.5 22.5 0.00 0.00 0.00 77 1018.0
20260510014503 10 44 8.0 22.5 0.00 0.00 0.00 77 1017.9
20260510014003 10 47 11.3 22.5 0.00 0.00 0.00 77 1017.9
20260510013504 10 53 11.3 22.5 0.00 0.00 0.00 76 1017.9
20260510012503 10 49 11.3 19.3 0.00 0.00 0.00 76 1018.0
20260510012004 10 47 4.8 16.1 0.00 0.00 0.00 75 1018.0
20260510011503 11 61 3.2 14.5 0.00 0.00 0.00 75 1018.0
20260510011003 11 65 6.4 16.1 0.00 0.00 0.00 75 1018.0
20260510010504 11 59 9.7 19.3 0.00 0.00 0.00 76 1018.0
20260510010004 11 49 9.7 20.9 0.00 0.00 0.00 76 1018.0
20260510005504 11 52 8.0 19.3 0.00 0.00 0.00 76 1017.9
20260510005004 11 62 8.0 22.5 0.00 0.00 0.00 76 1017.9
20260510004503 11 38 9.7 22.5 0.00 0.00 0.00 75 1017.9
20260510004004 11 52 8.0 20.9 0.00 0.00 0.00 75 1017.9
20260510003503 11 56 11.3 25.7 0.00 0.00 0.00 75 1017.9
20260510003004 11 35 9.7 19.3 0.00 0.00 0.00 75 1018.0
20260510002504 11 38 8.0 19.3 0.00 0.00 0.00 76 1017.9
20260510002003 11 53 9.7 19.3 0.00 0.00 0.00 76 1017.9
20260510001504 11 35 9.7 22.5 0.00 0.00 0.00 76 1017.8
20260510000504 11 36 9.7 19.3 0.00 0.00 0.00 75 1017.7
20260510000004 11 11 11.3 24.1 0.00 0.00 0.00 75 1017.7
20260509235504 12 30 11.3 27.4 0.00 0.00 0.00 75 1017.7
20260509235004 12 24 11.3 19.3 0.00 0.00 0.00 75 1017.7
20260509232504 12 69 9.7 19.3 0.00 0.00 0.00 74 1017.6
20260509232004 12 59 8.0 19.3 0.00 0.00 0.00 75 1017.6
20260509231504 12 31 9.7 16.1 0.00 0.00 0.00 75 1017.6
20260509231004 12 59 4.8 19.3 0.00 0.00 0.00 75 1017.6
20260509230503 12 64 4.8 16.1 0.00 0.00 0.00 75 1017.5
20260509230004 12 37 12.9 24.1 0.00 0.00 0.00 75 1017.6
20260509225004 12 56 8.0 19.3 0.00 0.00 0.00 75 1017.6
20260509224005 12 42 8.0 19.3 0.00 0.00 0.00 75 1017.5
20260509223504 13 18 8.0 16.1 0.00 0.00 0.00 75 1017.5
20260509223005 13 36 8.0 19.3 0.00 0.00 0.00 75 1017.5
20260509222503 13 56 9.7 22.5 0.00 0.00 0.00 75 1017.5
20260509221005 13 57 8.0 19.3 0.00 0.00 0.00 75 1017.5
20260509220004 13 47 9.7 20.9 0.00 0.00 0.00 75 1017.5
20260509215504 13 58 9.7 19.3 0.00 0.00 0.00 75 1017.4
20260509215004 13 66 9.7 19.3 0.00 0.00 0.00 75 1017.5
20260509214005 13 67 11.3 20.9 0.00 0.00 0.00 75 1017.5
20260509213504 13 71 11.3 22.5 0.00 0.00 0.00 74 1017.4
20260509213004 13 58 8.0 19.3 0.00 0.00 0.00 74 1017.4
20260509212503 13 65 9.7 19.3 0.00 0.00 0.00 74 1017.4
20260509212004 13 64 12.9 22.5 0.00 0.00 0.00 74 1017.3
20260509211503 13 61 9.7 20.9 0.00 0.00 0.00 74 1017.2
20260509210504 14 44 14.5 24.1 0.00 0.00 0.00 73 1017.2
20260509205504 14 35 11.3 20.9 0.00 0.00 0.00 72 1017.1
20260509205005 14 43 14.5 24.1 0.00 0.00 0.00 72 1017.1
20260509204503 14 30 16.1 25.7 0.00 0.00 0.00 72 1017.1
20260509204004 14 34 4.8 19.3 0.00 0.00 0.00 71 1017.1
20260509203505 14 43 4.8 19.3 0.00 0.00 0.00 71 1017.1
20260509203004 14 35 9.7 19.3 0.00 0.00 0.00 71 1017.0
20260509202503 14 62 11.3 19.3 0.00 0.00 0.00 70 1016.9
20260509201503 14 16 6.4 19.3 0.00 0.00 0.00 70 1017.1
20260509201003 15 50 8.0 16.1 0.00 0.00 0.00 70 1016.9
20260509200004 15 38 8.0 19.3 0.00 0.00 0.00 69 1016.8
20260509195504 15 24 8.0 25.7 0.00 0.00 0.00 69 1016.8
20260509195003 15 13 9.7 22.5 0.00 0.00 0.00 69 1016.8
20260509194504 15 14 9.7 22.5 0.00 0.00 0.00 68 1016.7
20260509193504 15 17 11.3 22.5 0.00 0.00 0.00 68 1016.6
20260509193004 16 28 11.3 24.1 0.00 0.00 0.00 67 1016.5
20260509192503 16 5 11.3 25.7 0.00 0.00 0.00 66 1016.6
20260509192003 16 17 9.7 22.5 0.00 0.00 0.00 66 1016.5
20260509191504 16 7 11.3 24.1 0.00 0.00 0.00 64 1016.5
20260509190003 17 35 11.3 22.5 0.00 0.00 0.00 61 1016.3
20260509185504 17 35 8.0 22.5 0.00 0.00 0.00 58 1016.3
20260509185003 18 22 8.0 19.3 0.00 0.00 0.00 55 1016.2
20260509184503 18 40 6.4 14.5 0.00 0.00 0.00 50 1016.1
20260509184004 18 39 6.4 16.1 0.00 0.00 0.00 49 1016.1
20260509183504 18 37 11.3 19.3 0.00 0.00 0.00 49 1016.0
20260509183004 18 34 9.7 20.9 0.00 0.00 0.00 48 1015.9
20260509182504 18 62 8.0 19.3 0.00 0.00 0.00 48 1015.9
20260509181504 19 62 9.7 22.5 0.00 0.00 0.00 47 1015.8
20260509181004 19 37 9.7 19.3 0.00 0.00 0.00 47 1015.8
20260509180504 20 66 8.0 16.1 0.00 0.00 0.00 46 1015.8
20260509180004 20 41 9.7 16.1 0.00 0.00 0.00 47 1015.8
20260509175504 20 43 8.0 19.3 0.00 0.00 0.00 46 1015.8
20260509174503 20 45 4.8 16.1 0.00 0.00 0.00 46 1015.8
20260509174004 20 35 6.4 19.3 0.00 0.00 0.00 46 1015.8
20260509173503 20 60 9.7 19.3 0.00 0.00 0.00 46 1015.8
20260509173004 20 93 9.7 19.3 0.00 0.00 0.00 46 1015.8
20260509172004 20 62 8.0 19.3 0.00 0.00 0.00 48 1015.8
20260509171004 20 91 9.7 19.3 0.00 0.00 0.00 48 1015.7
20260509170504 20 45 8.0 16.1 0.00 0.00 0.00 49 1015.8
20260509170003 20 89 4.8 14.5 0.00 0.00 0.00 49 1015.9
20260509165503 20 63 8.0 16.1 0.00 0.00 0.00 50 1015.9
20260509165003 20 35 4.8 14.5 0.00 0.00 0.00 50 1015.9
20260509164504 20 60 4.8 16.1 0.00 0.00 0.00 51 1015.9
20260509164004 20 18 6.4 19.3 0.00 0.00 0.00 51 1016.0
20260509163503 20 50 8.0 20.9 0.00 0.00 0.00 50 1015.9
20260509163004 20 103 4.8 9.7 0.00 0.00 0.00 51 1016.0
20260509162503 20 88 8.0 16.1 0.00 0.00 0.00 51 1015.9
20260509162004 20 101 9.7 14.5 0.00 0.00 0.00 52 1015.9
20260509161503 19 72 6.4 12.9 0.00 0.00 0.00 53 1015.9
20260509161003 19 64 4.8 16.1 0.00 0.00 0.00 53 1015.9
20260509160003 19 93 11.3 16.1 0.00 0.00 0.00 51 1016.0
20260509155503 19 106 9.7 19.3 0.00 0.00 0.00 51 1016.0
20260509155003 20 95 8.0 19.3 0.00 0.00 0.00 52 1016.1
20260509154503 20 98 9.7 16.1 0.00 0.00 0.00 54 1016.0
20260509154003 20 114 4.8 12.9 0.00 0.00 0.00 53 1016.0
20260509153504 20 101 8.0 14.5 0.00 0.00 0.00 51 1016.0
20260509152504 19 94 8.0 16.1 0.00 0.00 0.00 52 1016.0